Weather History for Gadsden, AL

Change the Weather History Date:

Monday, November 1, 2010

  Actual Average Record
Temperature  
Mean Temperature 56 °F -  
Max Temperature 73 °F 68 °F 86 °F (1935)
Min Temperature 39 °F 43 °F 28 °F (1939)
Degree Days  
Heating Degree Days 9    
Growing Degree Days 6 (Base 50)    
Moisture  
Dew Point 43 °F    
Average Humidity 67    
Maximum Humidity 93    
Minimum Humidity 36    
Precipitation  
Precipitation 0.00 in - - ()
Sea Level Pressure  
Sea Level Pressure 30.16 in    
Wind  
Wind Speed 1 mph (ENE)    
Max Wind Speed 7 mph    
Max Gust Speed -    
Visibility 10 miles    
Events      
Averages and records for this station are not official NWS values.
T = Trace of Precipitation, MM = Missing Value Source: NWS Daily Summary

Daily Weather History Graph

Daily Weather History Graph

Search for Another Location

Airport:

Trip Planner

Search our weather history database for the weather conditions in past years. The results will help you decide how hot, cold, wet, or windy it might be!

Date:

Astronomy

Nov. 01, 2010 Rise Set
Actual Time 7:03 AM CDT 5:51 PM CDT
Civil Twilight 6:37 AM CDT 6:17 PM CDT
Nautical Twilight 6:08 AM CDT 6:46 PM CDT
Astronomical Twilight 5:39 AM CDT 7:16 PM CDT
Moon 1:53 AM CDT (11/1) 2:46 PM CDT (11/1)
Length of Visible Light 11h 39m
Length of Day
10h 47m
Waning Crescent, 26% of the Moon is Illuminated
Nov 1
Waning Crescent
Nov 5
New
Nov 13
First Quarter
Nov 21
Full
Nov 28
Last Quarter

Hourly Weather History & Observations

Time (CDT) Temp. Windchill Dew Point Humidity Pressure Visibility Wind Dir Wind Speed Gust Speed Precip Events Conditions
12:15 AM 44.6 °F - 39.2 °F 81% 30.12 in 10.0 mi Calm Calm - N/A   Clear
12:35 AM 42.8 °F - 39.2 °F 87% 30.12 in 10.0 mi Calm Calm - N/A   Clear
12:55 AM 42.8 °F - 39.2 °F 87% 30.12 in 10.0 mi Calm Calm - N/A   Clear
1:15 AM 44.6 °F - 39.2 °F 81% 30.13 in 10.0 mi Calm Calm - N/A   Clear
1:35 AM 42.8 °F - 39.2 °F 87% 30.13 in 10.0 mi Calm Calm - N/A   Clear
2:15 AM 42.8 °F - 37.4 °F 81% 30.13 in 10.0 mi Calm Calm - N/A   Clear
2:35 AM 42.8 °F - 37.4 °F 81% 30.12 in 10.0 mi Calm Calm - N/A   Clear
2:55 AM 42.8 °F - 39.2 °F 87% 30.13 in 10.0 mi Calm Calm - N/A   Clear
3:15 AM 42.8 °F - 39.2 °F 87% 30.13 in 10.0 mi Calm Calm - N/A   Clear
3:35 AM 41.0 °F - 37.4 °F 87% 30.13 in 10.0 mi Calm Calm - N/A   Clear
3:55 AM 39.2 °F 37.0 °F 37.4 °F 93% 30.14 in 10.0 mi West 3.5 mph - N/A   Clear
4:15 AM 41.0 °F - 37.4 °F 87% 30.14 in 10.0 mi Calm Calm - N/A   Clear
4:35 AM 41.0 °F - 37.4 °F 87% 30.14 in 10.0 mi Calm Calm - N/A   Clear
4:55 AM 41.0 °F - 37.4 °F 87% 30.15 in 10.0 mi Calm Calm - N/A   Clear
5:15 AM 41.0 °F - 37.4 °F 87% 30.16 in 10.0 mi Calm Calm - N/A   Clear
5:35 AM 39.2 °F - 37.4 °F 93% 30.16 in 10.0 mi Calm Calm - N/A   Clear
5:55 AM 39.2 °F - 37.4 °F 93% 30.17 in 10.0 mi Calm Calm - N/A   Clear
6:15 AM 41.0 °F - 37.4 °F 87% 30.17 in 10.0 mi Calm Calm - N/A   Clear
6:35 AM 39.2 °F - 35.6 °F 87% 30.17 in 10.0 mi Calm Calm - N/A   Clear
6:55 AM 39.2 °F - 35.6 °F 87% 30.18 in 10.0 mi Calm Calm - N/A   Clear
7:15 AM 39.2 °F - 35.6 °F 87% 30.18 in 10.0 mi Calm Calm - N/A   Clear
7:35 AM 41.0 °F - 37.4 °F 87% 30.19 in 10.0 mi Calm Calm - N/A   Clear
7:55 AM 42.8 °F - 39.2 °F 87% 30.20 in 10.0 mi Calm Calm - N/A   Clear
8:15 AM 44.6 °F - 39.2 °F 81% 30.21 in 10.0 mi Calm Calm - N/A   Clear
8:35 AM 46.4 °F - 42.8 °F 87% 30.22 in 10.0 mi Calm Calm - N/A   Clear
8:55 AM 48.2 °F - 44.6 °F 87% 30.23 in 10.0 mi Calm Calm - N/A   Clear
9:15 AM 51.8 °F - 44.6 °F 76% 30.23 in 10.0 mi Calm Calm - N/A   Clear
9:35 AM 53.6 °F - 46.4 °F 77% 30.23 in 10.0 mi ENE 4.6 mph - N/A   Clear
9:55 AM 53.6 °F - 46.4 °F 77% 30.22 in 10.0 mi ENE 3.5 mph - N/A   Clear
10:15 AM 55.4 °F - 46.4 °F 72% 30.22 in 10.0 mi NNE 3.5 mph - N/A   Clear
10:35 AM 57.2 °F - 46.4 °F 67% 30.22 in 10.0 mi ENE 4.6 mph - N/A   Clear
10:55 AM 60.8 °F - 46.4 °F 59% 30.22 in 10.0 mi East 3.5 mph - N/A   Clear
11:15 AM 62.6 °F - 46.4 °F 55% 30.21 in 10.0 mi North 3.5 mph - N/A   Clear
11:35 AM 64.4 °F - 46.4 °F 52% 30.20 in 10.0 mi Calm Calm - N/A   Clear
11:55 AM 66.2 °F - 46.4 °F 49% 30.20 in 10.0 mi Calm Calm - N/A   Clear
12:15 PM 68.0 °F - 46.4 °F 46% 30.20 in 10.0 mi Calm Calm - N/A   Clear
12:35 PM 69.8 °F - 46.4 °F 43% 30.18 in 5.0 mi East 3.5 mph - N/A   Clear
12:55 PM 71.6 °F - 46.4 °F 41% 30.17 in 10.0 mi NNE 4.6 mph - N/A   Clear
1:15 PM 71.6 °F - 46.4 °F 41% 30.16 in 8.0 mi Calm Calm - N/A   Clear
1:35 PM 71.6 °F - 46.4 °F 41% 30.15 in 10.0 mi SSE 3.5 mph - N/A   Clear
1:55 PM 71.6 °F - 44.6 °F 38% 30.15 in 10.0 mi Calm Calm - N/A   Clear
2:15 PM 73.4 °F - 46.4 °F 38% 30.14 in 10.0 mi ENE 5.8 mph - N/A   Clear
2:35 PM 73.4 °F - 46.4 °F 38% 30.13 in 9.0 mi ENE 3.5 mph - N/A   Clear
2:55 PM 73.4 °F - 44.6 °F 36% 30.13 in 10.0 mi Calm Calm - N/A   Clear
3:15 PM 73.4 °F - 46.4 °F 38% 30.13 in 10.0 mi Calm Calm - N/A   Clear
3:35 PM 73.4 °F - 46.4 °F 38% 30.14 in 10.0 mi ENE 5.8 mph - N/A   Clear
3:55 PM 73.4 °F - 46.4 °F 38% 30.13 in 10.0 mi ESE 3.5 mph - N/A   Clear
4:15 PM 73.4 °F - 46.4 °F 38% 30.14 in 10.0 mi NE 5.8 mph - N/A   Clear
4:35 PM 73.4 °F - 46.4 °F 38% 30.14 in 10.0 mi NE 6.9 mph - N/A   Clear
4:55 PM 69.8 °F - 48.2 °F 46% 30.14 in 10.0 mi NE 5.8 mph - N/A   Clear
5:15 PM 69.8 °F - 48.2 °F 46% 30.14 in 10.0 mi ENE 5.8 mph - N/A   Clear
5:35 PM 66.2 °F - 48.2 °F 52% 30.14 in 10.0 mi ENE 6.9 mph - N/A   Clear
5:55 PM 64.4 °F - 48.2 °F 56% 30.15 in 10.0 mi ENE 3.5 mph - N/A   Clear
6:15 PM 64.4 °F - 46.4 °F 52% 30.15 in 10.0 mi Calm Calm - N/A   Clear
6:35 PM 62.6 °F - 46.4 °F 55% 30.15 in 10.0 mi Calm Calm - N/A   Mostly Cloudy
6:55 PM 62.6 °F - 48.2 °F 59% 30.16 in 10.0 mi Calm Calm - N/A   Overcast
7:15 PM 62.6 °F - 48.2 °F 59% 30.17 in 10.0 mi Calm Calm - N/A   Mostly Cloudy
7:35 PM 60.8 °F - 48.2 °F 63% 30.17 in 10.0 mi NE 3.5 mph - N/A   Overcast
7:55 PM 60.8 °F - 48.2 °F 63% 30.17 in 10.0 mi North 3.5 mph - N/A   Mostly Cloudy
8:15 PM 60.8 °F - 46.4 °F 59% 30.17 in 10.0 mi North 3.5 mph - N/A   Overcast
8:35 PM 62.6 °F - 46.4 °F 55% 30.17 in 10.0 mi Calm Calm - N/A   Overcast
8:55 PM 62.6 °F - 46.4 °F 55% 30.18 in 10.0 mi East 8.1 mph - N/A   Overcast
9:15 PM 62.6 °F - 46.4 °F 55% 30.18 in 10.0 mi East 8.1 mph - N/A   Mostly Cloudy
9:35 PM 60.8 °F - 46.4 °F 59% 30.19 in 10.0 mi ENE 9.2 mph - N/A   Scattered Clouds
9:55 PM 62.6 °F - 46.4 °F 55% 30.20 in 10.0 mi ENE 4.6 mph - N/A   Mostly Cloudy
10:15 PM 60.8 °F - 46.4 °F 59% 30.20 in 10.0 mi ENE 5.8 mph - N/A   Mostly Cloudy
10:35 PM 59.0 °F - 46.4 °F 63% 30.20 in 10.0 mi ENE 5.8 mph - N/A   Partly Cloudy
10:55 PM 57.2 °F - 46.4 °F 67% 30.20 in 10.0 mi ENE 6.9 mph - N/A   Partly Cloudy
11:15 PM 57.2 °F - 46.4 °F 67% 30.19 in 10.0 mi ENE 8.1 mph - N/A   Partly Cloudy
11:55 PM 57.2 °F - 46.4 °F 67% 30.18 in 10.0 mi ENE 9.2 mph - N/A   Clear